TimeMDT,TemperatureF,Dew PointF,Humidity,Sea Level PressureIn,VisibilityMPH,Wind Direction,Wind SpeedMPH,Gust SpeedMPH,PrecipitationIn,Events,Conditions,WindDirDegrees,DateUTC
12:53 AM,55.0,43.0,64,30.09,10.0,Calm,Calm,-,N/A,,Clear,0,2013-06-30 06:53:00
1:53 AM,51.1,44.1,77,30.09,10.0,Calm,Calm,-,N/A,,Clear,0,2013-06-30 07:53:00
2:53 AM,50.0,44.1,80,30.10,10.0,Calm,Calm,-,N/A,,Clear,0,2013-06-30 08:53:00
3:53 AM,48.9,45.0,86,30.10,10.0,WSW,4.6,-,N/A,,Clear,240,2013-06-30 09:53:00
4:53 AM,52.0,46.0,80,30.11,10.0,Calm,Calm,-,N/A,,Clear,0,2013-06-30 10:53:00
5:53 AM,52.0,46.9,83,30.12,10.0,Calm,Calm,-,N/A,,Clear,0,2013-06-30 11:53:00
6:53 AM,63.0,48.0,58,30.10,10.0,ENE,4.6,-,N/A,,Clear,70,2013-06-30 12:53:00
7:53 AM,69.1,50.0,51,30.09,10.0,SSE,5.8,-,N/A,,Clear,150,2013-06-30 13:53:00
8:53 AM,72.0,48.0,43,30.11,10.0,SE,6.9,-,N/A,,Scattered Clouds,140,2013-06-30 14:53:00
9:53 AM,73.9,46.9,38,30.11,10.0,Variable,4.6,-,N/A,,Partly Cloudy,0,2013-06-30 15:53:00
10:53 AM,75.9,46.0,35,30.09,10.0,SE,8.1,-,N/A,,Clear,130,2013-06-30 16:53:00
11:53 AM,78.1,46.9,33,30.10,10.0,Variable,3.5,-,N/A,,Mostly Cloudy,0,2013-06-30 17:53:00
12:53 PM,77.0,46.0,33,30.10,10.0,SSE,8.1,-,N/A,,Mostly Cloudy,150,2013-06-30 18:53:00
1:53 PM,78.1,46.0,32,30.10,10.0,Variable,3.5,-,N/A,,Partly Cloudy,0,2013-06-30 19:53:00
2:53 PM,81.0,46.0,29,30.09,10.0,NE,3.5,-,N/A,,Clear,50,2013-06-30 20:53:00
3:53 PM,80.1,46.0,30,30.09,10.0,ENE,6.9,-,N/A,,Mostly Cloudy,70,2013-06-30 21:53:00
4:53 PM,81.0,48.0,31,30.08,10.0,East,5.8,-,N/A,,Partly Cloudy,80,2013-06-30 22:53:00
5:53 PM,80.1,46.9,31,30.07,10.0,East,8.1,17.3,N/A,,Clear,80,2013-06-30 23:53:00
6:53 PM,79.0,46.9,32,30.05,10.0,East,10.4,-,N/A,,Partly Cloudy,90,2013-07-01 00:53:00
7:53 PM,73.9,46.9,38,30.06,10.0,East,8.1,-,N/A,,Clear,90,2013-07-01 01:53:00
8:53 PM,64.9,48.9,56,30.08,10.0,ESE,4.6,-,N/A,,Clear,110,2013-07-01 02:53:00
9:53 PM,66.0,48.0,52,30.09,10.0,ESE,9.2,-,N/A,,Mostly Cloudy,120,2013-07-01 03:53:00
10:53 PM,62.1,48.9,62,30.11,10.0,SSE,8.1,-,N/A,,Clear,150,2013-07-01 04:53:00
11:53 PM,61.0,50.0,67,30.13,10.0,SSE,8.1,-,N/A,,Mostly Cloudy,150,2013-07-01 05:53:00